Location: Newark
(54.6833°N, 25.2833°E)
Time: 01:59:09
(UTC+00:00)

Altair - Pass Details

Date: 19 November 2019
Orbit: 1502 x 1682 km, 47.2° (Epoch: 07 December)

Event Time Altitude Azimuth Distance (km) Brightness Sun altitude
Rises 04:04:31 0° 258° (WSW) 4,635 - -15.7°
Reaches altitude 10° 04:07:35 10° 254° (WSW) 3,655 - -15.2°
Exits shadow 04:08:27 13° 253° (WSW) 3,387 8.8 -15.1°
Maximum altitude 04:16:25 55° 180° (S) 1,770 7.9 -14.0°
Drops below altitude 10° 04:25:27 10° 106° (ESE) 3,731 11.1 -12.7°
Sets 04:28:37 0° 102° (ESE) 4,737 12.2 -12.3°
